Total_Precipitation_Accumulation
-0.11 -0.03 -0.03 0.12 0.17 0.17 0.33 0.23 0.25 0.25 0.18 0.14 0.14 0.11 0.11 0.07 0.10 0.07 0.07 0.04 0.06 0.09 0.09 0.07 0.07 0.06 0.06 0.01 0.02 0.02 0.00 0.01 0.01 0.02 0.02 0.01 0.00 0.00 0.00 0.00 0.00 0.00 0.00 0.00 0.00 0.00 0.00 0.00 0.00 0.00 0.00 0.00 0.00 0.00 0.00 0.00 0.00 0.00 0.00 0.00 0.00 0.00 0.00 0.00 0.00 0.00 0.00 0.00 0.00
-0.10 -0.00 -0.00 0.12 0.19 0.19 0.35 0.26 0.30 0.30 0.21 0.14 0.12 0.09 0.09 0.06 0.08 0.07 0.07 0.04 0.05 0.08 0.08 0.08 0.09 0.08 0.08 0.03 0.03 0.03 0.03 0.03 0.01 0.01 0.01 0.02 0.00 0.00 0.00 0.00 0.00 0.00 0.00 0.00 0.00 0.00 0.00 0.00 0.00 0.00 0.00 0.00 0.00 0.00 0.00 0.00 0.00 0.00 0.00 0.00 0.00 0.00 0.00 0.00 0.00 0.00 0.00 0.00 0.00
-0.07 0.02 0.02 0.14 0.23 0.23 0.37 0.30 0.32 0.32 0.23 0.15 0.10 0.08 0.08 0.05 0.08 0.08 0.08 0.04 0.05 0.07 0.07 0.10 0.09 0.09 0.09 0.06 0.04 0.04 0.05 0.04 0.01 0.01 0.01 0.02 0.01 0.00 0.00 0.00 0.00 0.00 0.00 0.00 0.00 0.00 0.00 0.00 0.00 0.00 0.00 0.00 0.00 0.00 0.00 0.00 0.00 0.00 0.00 0.00 0.00 0.00 0.00 0.00 0.00 0.00 0.00 0.00 0.00
-0.05 0.02 0.02 0.15 0.29 0.29 0.38 0.29 0.33 0.33 0.23 0.15 0.09 0.07 0.07 0.05 0.07 0.08 0.08 0.04 0.05 0.12 0.12 0.11 0.09 0.09 0.09 0.06 0.04 0.04 0.04 0.04 0.02 0.00 0.00 0.02 0.01 0.00 0.00 0.00 0.00 0.00 0.00 0.00 0.00 0.00 0.00 0.00 0.00 0.00 0.00 0.00 0.00 0.00 0.00 0.00 0.00 0.00 0.00 0.00 0.00 0.00 0.00 0.00 0.00 0.00 0.00 0.00 0.00
-0.04 0.02 0.02 0.15 0.35 0.35 0.37 0.27 0.30 0.30 0.23 0.13 0.08 0.07 0.07 0.06 0.07 0.08 0.08 0.06 0.09 0.16 0.16 0.13 0.09 0.09 0.09 0.06 0.04 0.04 0.03 0.04 0.04 0.01 0.01 0.01 0.01 0.01 0.01 0.00 0.00 0.00 0.00 0.00 0.00 0.00 0.00 0.00 0.00 0.00 0.00 0.00 0.00 0.00 0.00 0.00 0.00 0.00 0.00 0.00 0.00 0.00 0.00 0.00 0.00 0.00 0.00 0.00 0.00
-0.04 -0.01 -0.01 0.15 0.40 0.40 0.35 0.24 0.28 0.28 0.18 0.10 0.06 0.06 0.06 0.08 0.08 0.09 0.09 0.09 0.10 0.17 0.17 0.17 0.12 0.10 0.10 0.06 0.04 0.04 0.03 0.04 0.03 0.02 0.02 0.01 0.02 0.01 0.01 0.00 0.00 0.00 0.00 0.00 0.00 0.00 0.00 0.00 0.00 0.00 0.00 0.00 0.00 0.00 0.00 0.00 0.00 0.00 0.00 0.00 0.00 0.00 0.00 0.00 0.00 0.00 0.00 0.00 0.00
-0.05 -0.02 -0.02 0.18 0.48 0.48 0.33 0.26 0.25 0.25 0.13 0.07 0.05 0.06 0.06 0.08 0.09 0.10 0.10 0.10 0.11 0.21 0.21 0.25 0.24 0.13 0.13 0.07 0.04 0.04 0.04 0.03 0.03 0.02 0.02 0.01 0.02 0.00 0.00 0.00 0.00 0.00 0.00 0.00 0.00 0.00 0.00 0.00 0.00 0.00 0.00 0.00 0.00 0.00 0.00 0.00 0.00 0.00 0.00 0.00 0.00 0.00 0.00 0.00 0.00 0.00 0.00 0.00 0.00
-0.07 -0.04 -0.04 0.23 0.53 0.53 0.32 0.24 0.23 0.23 0.09 0.05 0.05 0.06 0.06 0.08 0.09 0.12 0.12 0.11 0.15 0.18 0.18 0.29 0.26 0.12 0.12 0.06 0.04 0.04 0.04 0.03 0.03 0.03 0.03 0.03 0.02 0.00 0.00 0.00 0.00 0.00 0.00 0.00 0.00 0.00 0.00 0.00 0.00 0.00 0.00 -0.00 -0.00 0.00 0.00 0.00 0.00 0.00 0.00 0.00 0.00 0.00 0.00 0.00 0.00 0.00 0.00 0.00 0.00
-0.13 -0.13 -0.13 0.33 0.59 0.59 0.31 0.20 0.18 0.18 0.08 0.06 0.06 0.05 0.05 0.07 0.09 0.14 0.14 0.19 0.18 0.20 0.20 0.30 0.30 0.14 0.14 0.07 0.05 0.05 0.04 0.03 0.02 0.02 0.02 0.02 0.01 0.00 0.00 0.00 0.00 0.00 0.00 0.00 0.00 0.00 0.00 0.00 0.00 0.00 -0.00 -0.00 -0.00 0.00 0.00 0.00 0.00 0.00 0.00 0.00 0.00 0.00 0.00 0.00 0.00 0.00 0.00 0.00 0.00
-0.13 -0.05 -0.05 0.45 0.62 0.62 0.26 0.15 0.13 0.13 0.06 0.05 0.05 0.05 0.05 0.06 0.09 0.14 0.14 0.16 0.20 0.27 0.27 0.35 0.33 0.18 0.18 0.07 0.06 0.06 0.05 0.03 0.01 0.02 0.02 0.02 0.00 0.00 0.00 0.00 0.00 0.00 0.00 0.00 0.00 0.00 0.00 0.00 -0.00 -0.00 -0.00 -0.00 -0.00 0.00 0.00 0.00 0.00 0.00 0.00 0.00 0.00 0.00 0.00 0.00 0.00 0.00 0.00 0.00 0.00
-0.14 0.26 0.26 0.51 0.61 0.61 0.24 0.10 0.07 0.07 0.02 0.07 0.07 0.06 0.06 0.06 0.12 0.15 0.15 0.19 0.27 0.32 0.32 0.35 0.32 0.22 0.22 0.08 0.05 0.05 0.05 0.04 0.03 0.03 0.03 0.02 0.00 0.00 0.00 0.00 0.00 0.00 0.00 0.00 0.00 0.00 0.00 -0.00 -0.00 -0.00 -0.00 -0.00 -0.00 0.00 0.00 0.00 0.00 0.00 0.00 0.00 0.00 0.00 0.00 0.00 0.00 0.00 0.00 0.00 0.00
-0.13 0.30 0.30 0.54 0.59 0.59 0.21 0.10 0.06 0.06 0.06 0.11 0.09 0.07 0.07 0.08 0.11 0.17 0.17 0.23 0.29 0.32 0.32 0.34 0.33 0.26 0.26 0.11 0.06 0.06 0.06 0.05 0.05 0.04 0.04 0.02 0.00 0.00 0.00 0.00 0.00 0.00 0.00 0.00 0.00 0.00 0.00 -0.00 -0.00 -0.00 -0.00 -0.00 0.00 0.00 0.00 0.00 0.00 0.00 0.00 0.00 0.00 0.00 0.00 0.00 0.00 0.00 0.00 0.00 0.00
-0.05 0.38 0.38 0.59 0.50 0.50 0.16 0.08 0.06 0.06 0.10 0.12 0.11 0.09 0.09 0.11 0.11 0.19 0.19 0.25 0.28 0.34 0.34 0.37 0.32 0.28 0.28 0.15 0.07 0.07 0.07 0.06 0.04 0.04 0.04 0.01 0.00 0.00 0.00 0.00 0.00 0.00 0.00 0.00 0.00 0.00 -0.00 -0.00 -0.00 -0.00 -0.00 -0.00 0.00 0.00 0.00 0.00 0.00 0.00 0.00 0.00 0.00 0.00 0.00 0.00 0.00 0.00 0.00 0.00 0.00
0.08 0.49 0.49 0.62 0.44 0.44 0.15 0.09 0.07 0.07 0.11 0.13 0.12 0.12 0.12 0.13 0.13 0.19 0.19 0.24 0.29 0.33 0.33 0.36 0.34 0.31 0.31 0.17 0.09 0.09 0.08 0.07 0.06 0.01 0.01 0.01 0.01 0.00 0.00 0.00 0.00 0.00 0.00 0.00 0.00 0.00 0.00 -0.00 -0.00 -0.00 -0.00 0.00 0.00 0.00 0.00 0.00 0.00 0.00 0.00 0.00 0.00 0.00 0.00 0.00 0.00 0.00 0.00 0.00 0.00
0.25 0.55 0.55 0.63 0.35 0.35 0.13 0.10 0.08 0.08 0.13 0.16 0.14 0.15 0.15 0.16 0.16 0.23 0.23 0.25 0.30 0.30 0.30 0.33 0.35 0.31 0.31 0.24 0.11 0.11 0.08 0.07 0.03 0.00 0.00 0.00 0.01 0.01 0.01 0.01 0.00 0.00 0.00 0.00 0.00 0.00 0.00 -0.00 0.00 0.00 0.00 0.00 0.00 0.00 0.00 0.00 0.00 0.00 0.00 0.00 0.00 0.00 0.00 0.00 0.00 0.00 0.00 0.00 0.00
0.41 0.56 0.56 0.59 0.27 0.27 0.12 0.09 0.09 0.09 0.14 0.18 0.17 0.17 0.17 0.19 0.19 0.25 0.25 0.28 0.30 0.29 0.29 0.33 0.32 0.29 0.29 0.26 0.14 0.14 0.08 0.06 0.02 0.00 0.00 0.00 0.01 0.01 0.01 -0.00 0.00 0.00 0.00 0.00 0.00 0.00 0.00 0.00 0.00 0.00 0.00 0.00 0.00 0.00 0.00 0.00 0.00 0.00 0.00 0.00 0.00 0.00 0.00 0.00 0.00 0.00 0.00 0.00 0.00
0.47 0.57 0.57 0.52 0.19 0.19 0.10 0.08 0.09 0.09 0.15 0.18 0.18 0.18 0.18 0.20 0.22 0.30 0.30 0.31 0.32 0.31 0.31 0.30 0.26 0.25 0.25 0.23 0.13 0.13 0.06 0.04 0.01 0.00 0.00 0.00 0.01 0.01 0.01 0.00 0.00 0.00 0.00 0.00 0.00 0.00 0.00 0.00 0.00 0.00 0.00 0.00 0.00 0.00 0.00 0.00 0.00 -0.00 -0.00 -0.00 0.00 0.00 0.00 0.00 0.00 0.00 0.00 0.00 0.00
0.49 0.51 0.51 0.26 0.10 0.10 0.07 0.07 0.09 0.09 0.15 0.20 0.23 0.22 0.22 0.22 0.25 0.32 0.32 0.31 0.26 0.24 0.24 0.25 0.23 0.21 0.21 0.17 0.11 0.11 0.06 0.02 0.02 0.01 0.01 0.01 0.02 0.00 0.00 0.00 0.00 0.00 0.00 0.00 0.00 0.00 0.00 0.00 0.00 0.00 0.00 0.00 0.00 0.00 0.00 0.00 0.00 0.00 0.00 -0.00 -0.00 -0.00 -0.00 0.00 0.00 0.00 0.00 0.00 0.00
0.43 0.40 0.40 0.18 0.08 0.08 0.06 0.07 0.10 0.10 0.15 0.22 0.24 0.26 0.26 0.27 0.26 0.32 0.32 0.34 0.27 0.25 0.25 0.24 0.23 0.21 0.21 0.16 0.14 0.14 0.07 0.03 0.02 0.00 0.00 0.00 0.00 -0.00 -0.00 -0.00 0.00 0.00 0.00 0.00 0.00 0.00 0.00 0.00 -0.00 -0.00 -0.00 0.00 0.00 0.00 0.00 0.00 0.00 -0.00 -0.00 -0.00 -0.01 -0.01 -0.01 -0.01 0.00 0.00 0.00 0.00 0.00
0.38 0.27 0.27 0.11 0.07 0.07 0.07 0.09 0.11 0.11 0.17 0.27 0.29 0.33 0.33 0.29 0.28 0.30 0.30 0.30 0.27 0.27 0.27 0.26 0.23 0.18 0.18 0.16 0.16 0.16 0.10 0.04 0.01 0.00 0.00 -0.00 -0.00 0.00 0.00 0.00 0.00 0.00 0.00 0.00 0.00 0.00 -0.00 -0.00 -0.00 -0.00 -0.00 0.00 0.00 0.00 0.00 0.00 -0.00 -0.00 -0.00 -0.00 -0.01 -0.02 -0.02 -0.00 0.00 0.00 0.00 0.00 0.00
0.29 0.17 0.17 0.10 0.09 0.09 0.09 0.11 0.15 0.15 0.23 0.33 0.34 0.35 0.35 0.29 0.28 0.29 0.29 0.25 0.27 0.27 0.27 0.25 0.23 0.18 0.18 0.16 0.16 0.16 0.10 0.03 0.01 0.00 0.00 -0.00 -0.00 0.00 0.00 0.00 0.00 0.00 0.00 0.00 -0.00 -0.00 -0.00 -0.00 -0.00 -0.00 -0.00 -0.00 0.00 0.00 0.00 0.00 -0.00 -0.00 -0.00 -0.00 -0.01 -0.01 -0.01 0.00 0.00 0.00 0.00 0.00 0.00
0.23 0.14 0.14 0.14 0.14 0.14 0.14 0.17 0.21 0.21 0.32 0.38 0.40 0.34 0.34 0.28 0.27 0.26 0.26 0.22 0.26 0.25 0.25 0.25 0.22 0.19 0.19 0.16 0.13 0.13 0.08 0.01 0.00 -0.00 -0.00 -0.00 -0.00 0.00 0.00 0.00 0.00 0.00 0.00 -0.00 -0.00 -0.00 -0.00 -0.00 -0.00 -0.00 -0.00 -0.01 -0.00 -0.00 -0.00 -0.00 -0.00 -0.00 -0.00 -0.00 -0.00 -0.00 -0.00 0.00 0.00 0.00 0.00 0.00 0.00
0.19 0.18 0.18 0.20 0.21 0.21 0.23 0.26 0.33 0.33 0.37 0.43 0.43 0.33 0.33 0.28 0.24 0.22 0.22 0.23 0.25 0.23 0.23 0.22 0.21 0.18 0.18 0.17 0.10 0.10 0.06 0.01 -0.00 -0.00 -0.00 -0.00 -0.00 -0.00 -0.00 0.00 0.00 -0.00 -0.00 -0.00 -0.00 -0.00 -0.00 -0.00 -0.01 -0.01 -0.01 -0.01 -0.01 -0.00 -0.00 -0.00 -0.00 -0.00 -0.00 -0.00 0.00 0.00 0.00 0.00 0.00 0.00 0.00 0.00 0.00
0.19 0.24 0.24 0.29 0.31 0.31 0.31 0.34 0.39 0.39 0.44 0.45 0.41 0.29 0.29 0.26 0.21 0.20 0.20 0.23 0.23 0.20 0.20 0.19 0.19 0.17 0.17 0.15 0.10 0.10 0.04 -0.00 -0.00 -0.00 -0.00 -0.00 -0.00 -0.00 -0.00 0.00 -0.00 -0.00 -0.00 -0.01 -0.00 -0.00 -0.00 -0.00 -0.00 -0.00 -0.01 -0.01 -0.01 -0.01 -0.01 -0.01 -0.01 -0.01 -0.01 -0.00 0.00 0.00 0.00 0.00 0.00 0.00 0.00 0.00 0.00
0.21 0.29 0.29 0.37 0.39 0.39 0.37 0.38 0.43 0.43 0.44 0.43 0.38 0.27 0.27 0.24 0.18 0.20 0.20 0.23 0.19 0.17 0.17 0.16 0.17 0.15 0.15 0.14 0.14 0.14 0.02 -0.00 -0.00 -0.00 -0.00 -0.00 -0.00 -0.00 -0.00 0.00 -0.00 -0.01 -0.01 -0.01 -0.00 -0.00 -0.00 -0.00 -0.00 -0.00 -0.01 -0.02 -0.02 -0.01 -0.01 -0.01 -0.01 -0.01 -0.01 -0.00 0.00 0.00 0.00 0.00 0.00 0.00 0.00 0.00 0.00
0.24 0.33 0.33 0.42 0.43 0.43 0.44 0.43 0.41 0.41 0.41 0.40 0.35 0.28 0.28 0.25 0.17 0.19 0.19 0.23 0.16 0.13 0.13 0.13 0.15 0.15 0.15 0.15 0.13 0.13 0.01 -0.00 -0.00 -0.00 -0.00 -0.00 -0.00 -0.00 -0.00 -0.00 -0.00 -0.01 -0.01 -0.01 -0.01 -0.01 -0.01 -0.00 -0.00 -0.00 -0.01 -0.02 -0.02 -0.02 -0.02 -0.01 -0.01 -0.00 -0.00 0.00 0.00 0.00 0.00 0.00 0.00 0.00 0.00 0.00 0.00
0.28 0.39 0.39 0.44 0.46 0.46 0.50 0.47 0.42 0.42 0.40 0.40 0.35 0.30 0.30 0.22 0.17 0.19 0.19 0.21 0.12 0.08 0.08 0.10 0.13 0.14 0.14 0.14 0.11 0.11 0.04 -0.00 -0.00 -0.00 -0.00 -0.00 -0.00 -0.00 -0.00 -0.00 -0.00 -0.01 -0.01 -0.01 -0.01 -0.01 -0.01 -0.01 -0.01 -0.01 -0.01 -0.02 -0.02 -0.01 -0.01 -0.01 -0.00 -0.00 -0.00 0.00 0.00 0.00 0.00 0.00 0.00 0.00 0.00 0.00 0.00
0.31 0.41 0.41 0.48 0.52 0.52 0.54 0.51 0.44 0.44 0.41 0.37 0.32 0.28 0.28 0.20 0.17 0.18 0.18 0.22 0.09 0.06 0.06 0.07 0.10 0.10 0.10 0.11 0.05 0.05 0.00 -0.00 -0.00 -0.00 -0.00 -0.00 -0.00 -0.00 -0.00 -0.00 -0.01 -0.01 -0.01 -0.01 -0.01 -0.01 -0.01 -0.01 -0.01 -0.01 -0.01 -0.02 -0.02 -0.01 -0.01 -0.01 -0.00 0.00 0.00 0.00 0.00 0.00 0.00 0.00 0.00 0.00 0.00 0.00 0.00
0.33 0.42 0.42 0.50 0.54 0.54 0.57 0.55 0.44 0.44 0.39 0.34 0.29 0.27 0.27 0.19 0.17 0.18 0.18 0.19 0.08 0.06 0.06 0.06 0.05 0.05 0.05 0.03 0.00 0.00 -0.01 -0.01 -0.00 -0.00 -0.00 -0.00 -0.00 -0.00 -0.00 -0.01 -0.01 -0.01 -0.01 -0.01 -0.01 -0.01 -0.01 -0.01 -0.01 -0.01 -0.01 -0.01 -0.01 -0.01 -0.01 -0.00 -0.00 0.00 0.00 0.00 0.00 0.00 0.00 0.00 0.00 0.00 0.00 0.00 0.00
0.38 0.43 0.43 0.49 0.53 0.53 0.57 0.56 0.40 0.40 0.35 0.32 0.28 0.27 0.27 0.19 0.17 0.18 0.18 0.17 0.10 0.07 0.07 0.05 0.03 0.00 0.00 -0.01 -0.01 -0.01 -0.01 -0.01 -0.00 -0.00 -0.00 -0.01 -0.01 -0.01 -0.01 -0.01 -0.01 -0.01 -0.01 -0.01 -0.01 -0.01 -0.01 -0.01 -0.01 -0.01 -0.01 -0.01 -0.01 -0.01 -0.01 -0.00 0.00 0.00 0.00 0.00 0.00 0.00 0.00 0.00 0.00 0.00 0.00 0.00 0.00
0.40 0.44 0.44 0.47 0.52 0.52 0.55 0.54 0.36 0.36 0.35 0.31 0.30 0.25 0.25 0.19 0.17 0.18 0.18 0.12 0.08 0.07 0.07 0.04 -0.00 -0.01 -0.01 -0.01 -0.01 -0.01 -0.01 -0.01 -0.01 -0.01 -0.01 -0.01 -0.01 -0.01 -0.01 -0.01 -0.01 -0.01 -0.01 -0.01 -0.02 -0.02 -0.01 -0.01 -0.01 -0.01 -0.00 -0.00 -0.00 -0.00 -0.00 -0.00 0.00 0.00 0.00 0.00 0.00 0.00 0.00 0.00 0.00 0.00 0.00 0.00 0.00
0.42 0.43 0.43 0.46 0.49 0.49 0.48 0.42 0.34 0.34 0.34 0.30 0.30 0.22 0.22 0.19 0.20 0.16 0.16 0.10 0.06 0.03 0.03 -0.00 -0.01 -0.01 -0.01 -0.01 -0.01 -0.01 -0.01 -0.01 -0.01 -0.01 -0.01 -0.01 -0.01 -0.01 -0.01 -0.02 -0.01 -0.01 -0.01 -0.02 -0.02 -0.02 -0.02 -0.01 -0.00 -0.00 -0.00 -0.00 -0.00 -0.00 -0.00 0.00 0.00 0.00 0.00 0.00 0.00 0.00 0.00 0.00 0.00 0.00 0.00 0.00 0.00
0.41 0.43 0.43 0.45 0.46 0.46 0.42 0.36 0.32 0.32 0.33 0.31 0.26 0.19 0.19 0.19 0.19 0.13 0.13 0.08 0.05 -0.01 -0.01 -0.01 -0.01 -0.01 -0.01 -0.01 -0.01 -0.01 -0.01 -0.01 -0.01 -0.01 -0.01 -0.01 -0.01 -0.01 -0.01 -0.02 -0.02 -0.02 -0.02 -0.02 -0.02 -0.02 -0.02 -0.01 -0.00 -0.00 -0.00 0.00 0.00 0.00 0.00 0.00 0.00 0.00 0.00 0.00 0.00 0.00 0.00 0.00 0.00 0.00 0.00 0.00 0.00
0.40 0.43 0.43 0.44 0.42 0.42 0.37 0.31 0.32 0.32 0.34 0.32 0.26 0.18 0.18 0.18 0.14 0.07 0.07 0.03 0.01 -0.01 -0.01 -0.01 -0.01 -0.01 -0.01 -0.01 -0.01 -0.01 -0.01 -0.01 -0.01 -0.01 -0.01 -0.01 -0.01 -0.01 -0.01 -0.01 -0.01 -0.02 -0.02 -0.02 -0.02 -0.02 -0.01 -0.01 -0.00 -0.00 0.00 0.00 0.00 0.00 0.00 0.00 0.00 0.00 0.00 0.00 0.00 0.00 0.00 0.00 0.00 0.00 0.00 0.00 0.00
0.37 0.42 0.42 0.42 0.38 0.38 0.32 0.28 0.31 0.31 0.31 0.28 0.24 0.17 0.17 0.14 0.07 0.03 0.03 0.00 -0.01 -0.01 -0.01 -0.01 -0.01 -0.01 -0.01 -0.01 -0.01 -0.01 -0.01 -0.01 -0.01 -0.01 -0.01 -0.01 -0.01 -0.01 -0.01 -0.01 -0.01 -0.02 -0.02 -0.02 -0.01 -0.01 -0.01 -0.00 -0.00 -0.00 0.00 0.00 0.00 0.00 0.00 0.00 0.00 0.00 0.00 0.00 0.00 0.00 0.00 0.00 0.00 0.00 0.00 0.00 0.00
0.34 0.39 0.39 0.39 0.36 0.36 0.30 0.29 0.30 0.30 0.30 0.25 0.20 0.12 0.12 0.07 0.02 0.01 0.01 -0.01 -0.01 -0.02 -0.02 -0.01 -0.01 -0.01 -0.01 -0.01 -0.01 -0.01 -0.01 -0.01 -0.01 -0.01 -0.01 -0.01 -0.01 -0.01 -0.01 -0.01 -0.01 -0.01 -0.01 -0.01 -0.01 -0.01 -0.00 -0.00 0.00 0.00 0.00 0.00 0.00 0.00 0.00 0.00 0.00 0.00 0.00 0.00 0.00 0.00 0.00 0.00 0.00 0.00 0.00 0.00 0.00
0.32 0.36 0.36 0.35 0.31 0.31 0.29 0.27 0.28 0.28 0.28 0.22 0.15 0.05 0.05 0.01 0.00 -0.00 -0.00 -0.01 -0.02 -0.02 -0.02 -0.02 -0.02 -0.02 -0.02 -0.01 -0.01 -0.01 -0.01 -0.01 -0.01 -0.01 -0.01 -0.01 -0.01 -0.01 -0.01 -0.01 -0.01 -0.01 -0.01 -0.01 -0.00 -0.00 -0.00 0.00 0.00 0.00 0.00 0.00 0.00 0.00 0.00 0.00 0.00 0.00 0.00 0.00 0.00 0.00 0.00 0.00 0.00 0.00 0.00 0.00 0.00
0.30 0.32 0.32 0.29 0.24 0.24 0.25 0.23 0.24 0.24 0.24 0.19 0.11 0.04 0.04 0.00 -0.01 -0.02 -0.02 -0.01 -0.01 -0.02 -0.02 -0.02 -0.02 -0.02 -0.02 -0.01 -0.01 -0.01 -0.01 -0.01 -0.01 -0.01 -0.01 -0.01 -0.01 -0.01 -0.01 -0.01 -0.01 -0.01 -0.01 -0.00 -0.00 -0.00 -0.00 0.00 0.00 0.00 0.00 0.00 0.00 0.00 0.00 0.00 0.00 0.00 0.00 0.00 0.00 0.00 0.00 0.00 0.00 0.00 0.00 0.00 0.00
0.25 0.23 0.23 0.19 0.17 0.17 0.16 0.17 0.18 0.18 0.18 0.13 0.07 0.02 0.02 -0.01 -0.02 -0.02 -0.02 -0.01 -0.01 -0.02 -0.02 -0.02 -0.02 -0.02 -0.02 -0.01 -0.01 -0.01 -0.01 -0.01 -0.01 -0.01 -0.01 -0.01 -0.01 -0.01 -0.01 -0.01 -0.01 -0.00 -0.00 -0.00 -0.00 -0.00 0.00 0.00 0.00 0.00 0.00 0.00 0.00 0.00 0.00 0.00 0.00 0.00 0.00 0.00 0.00 0.00 0.00 0.00 0.00 0.00 0.00 0.00 0.00
0.18 0.15 0.15 0.11 0.11 0.11 0.10 0.09 0.09 0.09 0.07 0.04 -0.00 -0.01 -0.01 -0.01 -0.02 -0.02 -0.02 -0.02 -0.02 -0.02 -0.02 -0.02 -0.02 -0.02 -0.02 -0.01 -0.01 -0.01 -0.02 -0.02 -0.02 -0.02 -0.02 -0.02 -0.01 -0.01 -0.01 -0.01 -0.00 -0.00 -0.00 -0.00 0.00 0.00 0.00 0.00 0.00 0.00 0.00 0.00 0.00 0.00 0.00 0.00 0.00 0.00 0.00 0.00 0.00 0.00 0.00 0.00 0.00 0.00 0.00 0.00 0.00
0.10 0.09 0.09 0.07 0.06 0.06 0.05 0.02 0.01 0.01 0.00 -0.01 -0.01 -0.01 -0.01 -0.01 -0.02 -0.02 -0.02 -0.03 -0.03 -0.02 -0.02 -0.02 -0.01 -0.01 -0.01 -0.01 -0.01 -0.01 -0.02 -0.02 -0.02 -0.02 -0.02 -0.02 -0.02 -0.01 -0.01 -0.01 -0.01 0.00 0.00 0.00 0.00 0.00 0.00 0.00 0.00 0.00 0.00 0.00 0.00 0.00 0.00 0.00 0.00 0.00 0.00 0.00 0.00 0.00 0.00 0.00 0.00 0.00 0.00 0.00 0.00